| time (UTC) | temp F | wind direction | speed MPH | gust MPH | rain 1hr in | rain 24hr in | rain mn in | humidity % | barometer mb |
| 20260504204046 | 61 | 287 | 0.0 | 0.0 | 0.00 | 0.00 | 0.00 | 63 | 1012.0 |
| 20260504203513 | 61 | 287 | 0.0 | 0.0 | 0.00 | 0.00 | 0.00 | 62 | 1012.0 |
| 20260504203034 | 61 | 287 | 0.0 | 0.0 | 0.00 | 0.00 | 0.00 | 61 | 1011.9 |
| 20260504202553 | 62 | 287 | 0.0 | 0.0 | 0.00 | 0.00 | 0.00 | 61 | 1011.9 |
| 20260504202010 | 62 | 287 | 0.0 | 0.0 | 0.00 | 0.00 | 0.00 | 60 | 1011.9 |
| 20260504201546 | 62 | 287 | 0.0 | 0.0 | 0.00 | 0.00 | 0.00 | 60 | 1012.0 |
| 20260504201059 | 63 | 287 | 0.0 | 0.0 | 0.00 | 0.00 | 0.00 | 60 | 1012.0 |
| 20260504200527 | 63 | 287 | 0.0 | 0.0 | 0.00 | 0.00 | 0.00 | 58 | 1011.9 |
| 20260504200055 | 63 | 287 | 0.0 | 0.0 | 0.00 | 0.00 | 0.00 | 58 | 1011.9 |
| 20260504195510 | 64 | 287 | 0.0 | 0.0 | 0.00 | 0.00 | 0.00 | 57 | 1011.9 |
| 20260504195027 | 64 | 287 | 0.0 | 0.0 | 0.00 | 0.00 | 0.00 | 57 | 1011.9 |
| 20260504194547 | 65 | 287 | 0.0 | 0.0 | 0.00 | 0.00 | 0.00 | 56 | 1011.9 |
| 20260504194055 | 65 | 287 | 0.0 | 0.0 | 0.00 | 0.00 | 0.00 | 55 | 1011.9 |
| 20260504193519 | 65 | 287 | 0.0 | 0.0 | 0.00 | 0.00 | 0.00 | 54 | 1011.9 |
| 20260504193043 | 65 | 287 | 0.0 | 0.0 | 0.00 | 0.00 | 0.00 | 52 | 1012.0 |
| 20260504192559 | 66 | 287 | 0.0 | 1.0 | 0.00 | 0.00 | 0.00 | 52 | 1011.9 |
| 20260504192025 | 66 | 287 | 0.0 | 3.0 | 0.00 | 0.00 | 0.00 | 51 | 1011.9 |
| 20260504191554 | 66 | 269 | 0.0 | 3.0 | 0.00 | 0.00 | 0.00 | 51 | 1011.9 |
| 20260504191101 | 67 | 269 | 1.0 | 3.0 | 0.00 | 0.00 | 0.00 | 51 | 1011.8 |
| 20260504190517 | 67 | 270 | 1.0 | 3.0 | 0.00 | 0.00 | 0.00 | 49 | 1011.8 |
| 20260504190032 | 67 | 265 | 1.0 | 3.0 | 0.00 | 0.00 | 0.00 | 49 | 1011.8 |
| 20260504185551 | 67 | 257 | 0.0 | 3.0 | 0.00 | 0.00 | 0.00 | 48 | 1011.8 |
| 20260504185009 | 68 | 327 | 0.0 | 3.0 | 0.00 | 0.00 | 0.00 | 48 | 1011.7 |
| 20260504184534 | 68 | 328 | 0.0 | 2.0 | 0.00 | 0.00 | 0.00 | 48 | 1011.8 |
| 20260504184044 | 68 | 275 | 0.0 | 3.0 | 0.00 | 0.00 | 0.00 | 47 | 1011.6 |
| 20260504183601 | 69 | 271 | 1.0 | 4.0 | 0.00 | 0.00 | 0.00 | 47 | 1011.5 |
| 20260504183032 | 69 | 263 | 1.0 | 3.0 | 0.00 | 0.00 | 0.00 | 46 | 1011.5 |
| 20260504182543 | 69 | 304 | 0.0 | 3.0 | 0.00 | 0.00 | 0.00 | 45 | 1011.5 |
| 20260504182010 | 69 | 350 | 0.0 | 3.0 | 0.00 | 0.00 | 0.00 | 45 | 1011.5 |
| 20260504181531 | 70 | 259 | 0.0 | 3.0 | 0.00 | 0.00 | 0.00 | 45 | 1011.5 |
| 20260504181048 | 70 | 321 | 1.0 | 4.0 | 0.00 | 0.00 | 0.00 | 45 | 1011.5 |
| 20260504180504 | 70 | 307 | 1.0 | 7.0 | 0.00 | 0.00 | 0.00 | 45 | 1011.4 |
| 20260504180033 | 70 | 303 | 2.0 | 7.0 | 0.00 | 0.00 | 0.00 | 45 | 1011.4 |
| 20260504175551 | 71 | 338 | 0.0 | 3.0 | 0.00 | 0.00 | 0.00 | 45 | 1011.3 |
| 20260504175008 | 71 | 13 | 0.0 | 3.0 | 0.00 | 0.00 | 0.00 | 45 | 1011.3 |
| 20260504174528 | 71 | 312 | 0.0 | 4.0 | 0.00 | 0.00 | 0.00 | 44 | 1011.3 |
| 20260504174046 | 71 | 5 | 0.0 | 4.0 | 0.00 | 0.00 | 0.00 | 44 | 1011.3 |
| 20260504173505 | 71 | 317 | 0.0 | 4.0 | 0.00 | 0.00 | 0.00 | 44 | 1011.3 |
| 20260504173018 | 71 | 329 | 0.0 | 3.0 | 0.00 | 0.00 | 0.00 | 44 | 1011.3 |
| 20260504172536 | 71 | 335 | 0.0 | 3.0 | 0.00 | 0.00 | 0.00 | 44 | 1011.3 |
| 20260504172056 | 72 | 315 | 0.0 | 5.0 | 0.00 | 0.00 | 0.00 | 44 | 1011.3 |
| 20260504171522 | 72 | 296 | 0.0 | 6.0 | 0.00 | 0.00 | 0.00 | 44 | 1011.4 |
| 20260504171041 | 72 | 323 | 2.0 | 6.0 | 0.00 | 0.00 | 0.00 | 44 | 1011.3 |
| 20260504170507 | 72 | 296 | 1.0 | 6.0 | 0.00 | 0.00 | 0.00 | 44 | 1011.4 |
| 20260504151054 | 76 | 245 | 2.0 | 9.0 | 0.00 | 0.00 | 0.00 | 36 | 1011.5 |
| 20260504150520 | 76 | 261 | 0.0 | 11.0 | 0.00 | 0.00 | 0.00 | 35 | 1011.5 |
| 20260504141045 | 77 | 306 | 4.0 | 9.0 | 0.00 | 0.00 | 0.00 | 36 | 1011.5 |
| 20260504140502 | 77 | 56 | 0.0 | 10.0 | 0.00 | 0.00 | 0.00 | 35 | 1011.6 |
| 20260504130603 | 76 | 330 | 1.0 | 7.0 | 0.00 | 0.00 | 0.00 | 37 | 1012.0 |
| 20260504110507 | 75 | 259 | 8.0 | 12.0 | 0.00 | 0.00 | 0.00 | 38 | 1012.8 |
| 20260504100513 | 74 | 280 | 5.0 | 10.0 | 0.00 | 0.00 | 0.00 | 41 | 1013.4 |
| 20260504082004 | 69 | 294 | 5.0 | 10.0 | 0.00 | 0.00 | 0.00 | 47 | 1013.6 |
| 20260504081527 | 69 | 235 | 2.0 | 9.0 | 0.00 | 0.00 | 0.00 | 47 | 1013.6 |
| 20260504081042 | 69 | 209 | 5.0 | 10.0 | 0.00 | 0.00 | 0.00 | 47 | 1013.6 |
| 20260504080502 | 68 | 186 | 3.0 | 6.0 | 0.00 | 0.00 | 0.00 | 49 | 1013.6 |
| 20260504050531 | 61 | 189 | 1.0 | 3.0 | 0.00 | 0.00 | 0.00 | 56 | 1012.3 |
| 20260504045514 | 61 | 169 | 1.0 | 3.0 | 0.00 | 0.00 | 0.00 | 56 | 1012.5 |
| 20260504045032 | 61 | 176 | 0.0 | 3.0 | 0.00 | 0.00 | 0.00 | 55 | 1012.3 |
| 20260504044550 | 60 | 237 | 1.0 | 4.0 | 0.00 | 0.00 | 0.00 | 56 | 1012.4 |
| 20260504044006 | 60 | 10 | 1.0 | 4.0 | 0.00 | 0.00 | 0.00 | 56 | 1012.0 |
| 20260504043524 | 60 | 300 | 1.0 | 4.0 | 0.00 | 0.00 | 0.00 | 55 | 1012.5 |
| 20260504043108 | 60 | 225 | 0.0 | 5.0 | 0.00 | 0.00 | 0.00 | 55 | 1012.7 |
| 20260504042502 | 60 | 240 | 1.0 | 5.0 | 0.00 | 0.00 | 0.00 | 55 | 1012.6 |
| 20260504042019 | 60 | 232 | 2.0 | 5.0 | 0.00 | 0.00 | 0.00 | 54 | 1012.5 |
| 20260504041537 | 60 | 252 | 2.0 | 7.0 | 0.00 | 0.00 | 0.00 | 54 | 1012.5 |
| 20260504041048 | 60 | 209 | 1.0 | 8.0 | 0.00 | 0.00 | 0.00 | 54 | 1012.5 |
| 20260504040503 | 60 | 240 | 4.0 | 6.0 | 0.00 | 0.00 | 0.00 | 53 | 1012.5 |
| 20260504040023 | 60 | 261 | 4.0 | 9.0 | 0.00 | 0.00 | 0.00 | 53 | 1012.2 |
| 20260504035538 | 60 | 255 | 5.0 | 9.0 | 0.00 | 0.00 | 0.00 | 53 | 1012.3 |
| 20260504035056 | 60 | 235 | 3.0 | 7.0 | 0.00 | 0.00 | 0.00 | 54 | 1012.5 |
| 20260504034511 | 60 | 227 | 2.0 | 9.0 | 0.00 | 0.00 | 0.00 | 54 | 1012.3 |
| 20260504034039 | 60 | 236 | 3.0 | 8.0 | 0.00 | 0.00 | 0.00 | 54 | 1012.3 |
| 20260504033559 | 60 | 193 | 0.0 | 7.0 | 0.00 | 0.00 | 0.00 | 54 | 1012.3 |
| 20260504033025 | 60 | 305 | 3.0 | 7.0 | 0.00 | 0.00 | 0.00 | 54 | 1012.3 |
| 20260504032545 | 60 | 268 | 2.0 | 7.0 | 0.00 | 0.00 | 0.00 | 54 | 1012.3 |
| 20260504032054 | 60 | 269 | 3.0 | 6.0 | 0.00 | 0.00 | 0.00 | 53 | 1012.2 |
| 20260504031513 | 60 | 261 | 0.0 | 5.0 | 0.00 | 0.00 | 0.00 | 53 | 1012.2 |
| 20260504031044 | 60 | 245 | 3.0 | 6.0 | 0.00 | 0.00 | 0.00 | 53 | 1012.2 |
| 20260504030601 | 60 | 229 | 2.0 | 9.0 | 0.00 | 0.00 | 0.00 | 53 | 1012.1 |
| 20260504030034 | 60 | 232 | 4.0 | 9.0 | 0.00 | 0.00 | 0.00 | 53 | 1012.0 |
| 20260504025545 | 60 | 270 | 1.0 | 8.0 | 0.00 | 0.00 | 0.00 | 52 | 1012.0 |
| 20260504025014 | 60 | 273 | 4.0 | 8.0 | 0.00 | 0.00 | 0.00 | 52 | 1012.1 |
| 20260504024535 | 60 | 206 | 4.0 | 8.0 | 0.00 | 0.00 | 0.00 | 52 | 1012.1 |
| 20260504024059 | 60 | 258 | 4.0 | 8.0 | 0.00 | 0.00 | 0.00 | 52 | 1012.1 |
| 20260504023521 | 60 | 242 | 4.0 | 9.0 | 0.00 | 0.00 | 0.00 | 52 | 1012.1 |
| 20260504023042 | 60 | 272 | 5.0 | 10.0 | 0.00 | 0.00 | 0.00 | 51 | 1012.0 |
| 20260504022508 | 60 | 239 | 4.0 | 10.0 | 0.00 | 0.00 | 0.00 | 51 | 1011.9 |
| 20260504022024 | 60 | 248 | 5.0 | 10.0 | 0.00 | 0.00 | 0.00 | 51 | 1011.8 |
| 20260504021547 | 60 | 238 | 4.0 | 8.0 | 0.00 | 0.00 | 0.00 | 51 | 1011.8 |
| 20260504021040 | 60 | 272 | 4.0 | 8.0 | 0.00 | 0.00 | 0.00 | 51 | 1011.7 |
| 20260504020600 | 61 | 254 | 3.0 | 8.0 | 0.00 | 0.00 | 0.00 | 50 | 1011.7 |
| 20260504020022 | 61 | 209 | 2.0 | 8.0 | 0.00 | 0.00 | 0.00 | 50 | 1011.6 |
| 20260504015536 | 61 | 253 | 4.0 | 8.0 | 0.00 | 0.00 | 0.00 | 50 | 1011.7 |
| 20260504015055 | 61 | 177 | 2.0 | 10.0 | 0.00 | 0.00 | 0.00 | 50 | 1011.6 |
| 20260504014522 | 61 | 286 | 4.0 | 10.0 | 0.00 | 0.00 | 0.00 | 49 | 1011.5 |
| 20260504014039 | 62 | 242 | 3.0 | 9.0 | 0.00 | 0.00 | 0.00 | 49 | 1011.5 |
| 20260504013558 | 62 | 265 | 3.0 | 9.0 | 0.00 | 0.00 | 0.00 | 49 | 1011.5 |
| 20260504013019 | 62 | 242 | 4.0 | 11.0 | 0.00 | 0.00 | 0.00 | 48 | 1011.5 |
| 20260504012535 | 62 | 256 | 6.0 | 9.0 | 0.00 | 0.00 | 0.00 | 48 | 1011.4 |
| 20260504012052 | 62 | 244 | 4.0 | 9.0 | 0.00 | 0.00 | 0.00 | 48 | 1011.4 |
| 20260504011520 | 62 | 230 | 4.0 | 9.0 | 0.00 | 0.00 | 0.00 | 48 | 1011.4 |
| 20260504011042 | 62 | 241 | 3.0 | 10.0 | 0.00 | 0.00 | 0.00 | 48 | 1011.3 |
| 20260504010557 | 62 | 231 | 5.0 | 10.0 | 0.00 | 0.00 | 0.00 | 48 | 1011.4 |
| 20260504010012 | 62 | 254 | 4.0 | 11.0 | 0.00 | 0.00 | 0.00 | 48 | 1011.3 |
| 20260504005532 | 62 | 212 | 5.0 | 11.0 | 0.00 | 0.00 | 0.00 | 48 | 1011.2 |
| 20260504005050 | 62 | 231 | 5.0 | 10.0 | 0.00 | 0.00 | 0.00 | 48 | 1011.3 |
| 20260504004513 | 62 | 244 | 3.0 | 10.0 | 0.00 | 0.00 | 0.00 | 49 | 1011.3 |
| 20260504004025 | 62 | 218 | 4.0 | 10.0 | 0.00 | 0.00 | 0.00 | 49 | 1011.3 |
| 20260504003542 | 61 | 227 | 4.0 | 10.0 | 0.00 | 0.00 | 0.00 | 49 | 1011.2 |
| 20260504003112 | 61 | 238 | 2.0 | 7.0 | 0.00 | 0.00 | 0.00 | 49 | 1011.2 |
| 20260504002525 | 61 | 242 | 2.0 | 7.0 | 0.00 | 0.00 | 0.00 | 49 | 1011.2 |
| 20260504002044 | 61 | 225 | 3.0 | 7.0 | 0.00 | 0.00 | 0.00 | 49 | 1011.2 |
| 20260504001526 | 61 | 233 | 2.0 | 8.0 | 0.00 | 0.00 | 0.00 | 49 | 1011.3 |
| 20260504001030 | 62 | 206 | 3.0 | 8.0 | 0.00 | 0.00 | 0.00 | 48 | 1011.4 |
| 20260504000549 | 62 | 221 | 4.0 | 15.0 | 0.00 | 0.00 | 0.00 | 48 | 1011.5 |
| 20260504000006 | 62 | 242 | 6.0 | 15.0 | 0.00 | 0.00 | 0.00 | 48 | 1011.5 |
| 20260503235531 | 62 | 206 | 2.0 | 11.0 | 0.00 | 0.00 | 0.00 | 48 | 1011.4 |
| 20260503235050 | 62 | 229 | 4.0 | 11.0 | 0.00 | 0.00 | 0.00 | 47 | 1011.4 |
| 20260503234519 | 62 | 252 | 1.0 | 9.0 | 0.00 | 0.00 | 0.00 | 47 | 1011.4 |
| 20260503234038 | 63 | 279 | 5.0 | 9.0 | 0.00 | 0.00 | 0.00 | 46 | 1011.4 |
| 20260503233555 | 63 | 219 | 2.0 | 5.0 | 0.00 | 0.00 | 0.00 | 46 | 1011.1 |
| 20260503233008 | 63 | 217 | 0.0 | 5.0 | 0.00 | 0.00 | 0.00 | 46 | 1011.1 |
| 20260503232539 | 63 | 228 | 1.0 | 4.0 | 0.00 | 0.00 | 0.00 | 45 | 1011.1 |
| 20260503232059 | 63 | 212 | 0.0 | 4.0 | 0.00 | 0.00 | 0.00 | 45 | 1011.1 |
| 20260503231525 | 64 | 225 | 1.0 | 6.0 | 0.00 | 0.00 | 0.00 | 45 | 1011.0 |
| 20260503231044 | 64 | 175 | 2.0 | 7.0 | 0.00 | 0.00 | 0.00 | 44 | 1011.1 |
| 20260503230602 | 64 | 178 | 2.0 | 5.0 | 0.00 | 0.00 | 0.00 | 44 | 1011.1 |
| 20260503230017 | 64 | 267 | 2.0 | 6.0 | 0.00 | 0.00 | 0.00 | 44 | 1011.1 |
| 20260503225529 | 64 | 203 | 2.0 | 7.0 | 0.00 | 0.00 | 0.00 | 44 | 1011.0 |
| 20260503225057 | 65 | 198 | 3.0 | 7.0 | 0.00 | 0.00 | 0.00 | 43 | 1011.1 |
| 20260503224513 | 65 | 212 | 1.0 | 7.0 | 0.00 | 0.00 | 0.00 | 43 | 1011.1 |
| 20260503224029 | 65 | 181 | 2.0 | 7.0 | 0.00 | 0.00 | 0.00 | 43 | 1011.1 |
| 20260503223548 | 65 | 226 | 3.0 | 7.0 | 0.00 | 0.00 | 0.00 | 42 | 1011.1 |
| 20260503223008 | 65 | 179 | 3.0 | 9.0 | 0.00 | 0.00 | 0.00 | 42 | 1011.1 |
| 20260503222522 | 65 | 189 | 4.0 | 10.0 | 0.00 | 0.00 | 0.00 | 42 | 1011.1 |
| 20260503222041 | 66 | 203 | 3.0 | 10.0 | 0.00 | 0.00 | 0.00 | 41 | 1011.1 |
| 20260503221601 | 66 | 210 | 2.0 | 7.0 | 0.00 | 0.00 | 0.00 | 41 | 1011.2 |
| 20260503221028 | 66 | 221 | 3.0 | 8.0 | 0.00 | 0.00 | 0.00 | 41 | 1011.2 |
| 20260503220545 | 66 | 196 | 3.0 | 8.0 | 0.00 | 0.00 | 0.00 | 41 | 1011.3 |
| 20260503220003 | 66 | 165 | 2.0 | 8.0 | 0.00 | 0.00 | 0.00 | 40 | 1011.3 |
| 20260503215527 | 66 | 206 | 1.0 | 10.0 | 0.00 | 0.00 | 0.00 | 40 | 1011.3 |
| 20260503215044 | 67 | 190 | 4.0 | 10.0 | 0.00 | 0.00 | 0.00 | 40 | 1011.3 |
| 20260503214602 | 67 | 225 | 2.0 | 8.0 | 0.00 | 0.00 | 0.00 | 39 | 1011.2 |
| 20260503214015 | 67 | 188 | 3.0 | 8.0 | 0.00 | 0.00 | 0.00 | 38 | 1011.3 |
| 20260503213535 | 68 | 204 | 1.0 | 8.0 | 0.00 | 0.00 | 0.00 | 38 | 1011.3 |
| 20260503213055 | 68 | 159 | 3.0 | 10.0 | 0.00 | 0.00 | 0.00 | 38 | 1011.3 |
| 20260503212511 | 68 | 92 | 1.0 | 12.0 | 0.00 | 0.00 | 0.00 | 37 | 1011.3 |
| 20260503212041 | 68 | 188 | 3.0 | 9.0 | 0.00 | 0.00 | 0.00 | 37 | 1011.3 |
| 20260503211602 | 68 | 205 | 4.0 | 9.0 | 0.00 | 0.00 | 0.00 | 37 | 1011.3 |
| 20260503211026 | 69 | 159 | 2.0 | 9.0 | 0.00 | 0.00 | 0.00 | 36 | 1011.3 |
| 20260503210543 | 69 | 171 | 2.0 | 9.0 | 0.00 | 0.00 | 0.00 | 36 | 1011.4 |
| 20260503205527 | 69 | 118 | 4.0 | 9.0 | 0.00 | 0.00 | 0.00 | 36 | 1011.3 |
| 20260503205048 | 69 | 186 | 2.0 | 7.0 | 0.00 | 0.00 | 0.00 | 36 | 1011.4 |
| 20260503204522 | 69 | 360 | 3.0 | 10.0 | 0.00 | 0.00 | 0.00 | 35 | 1011.5 |